ECMWFFLT1_925_spd_009.txt.gz
Wind_Speed
12 12 11 9 8 8 8 9 10 9 10 11 12 13 13 13 12 11 9 7 6 4 3 2 2 3 4 5 6 8 8 8 8 10 12 12 11 10 8 8 9 10 10 11 12 12 12 12 12 11 11 10 10 10 10 10 10 9 10 11 13 14 15
11 11 10 10 9 9 9 10 10 10 11 12 13 14 14 14 13 11 10 8 7 5 4 2 2 4 4 5 6 7 7 7 8 10 11 12 13 13 11 9 9 9 9 9 10 11 11 11 11 11 11 11 10 9 9 9 10 9 9 10 11 13 15
11 11 11 11 10 9 9 11 11 11 12 13 14 15 16 15 13 12 10 9 8 6 4 3 3 4 4 5 6 6 7 8 9 10 10 11 13 14 15 14 12 11 9 9 9 9 10 10 10 11 10 10 10 10 11 11 11 10 10 10 10 11 14
12 12 11 10 10 9 9 11 11 12 12 13 15 16 17 15 13 12 11 10 8 7 5 4 4 5 6 6 6 7 8 8 9 10 10 11 12 13 14 15 15 13 12 12 11 9 9 9 10 9 9 10 12 14 15 13 12 12 11 11 11 11 13
13 12 10 10 10 9 9 11 12 12 13 13 15 17 16 15 13 13 12 11 9 8 6 6 6 6 7 7 8 8 8 9 9 10 10 10 11 13 14 14 15 14 13 14 14 11 9 9 9 9 10 12 15 16 16 14 13 13 13 13 14 14 14
13 12 11 10 10 9 10 12 12 13 13 13 16 18 16 14 13 13 12 12 10 9 8 7 7 7 8 8 9 10 9 9 10 10 10 10 11 13 14 14 13 13 13 14 14 12 10 8 8 9 11 13 15 15 15 15 15 15 16 16 17 17 17
11 11 11 10 10 10 10 12 12 12 12 13 15 16 14 12 12 12 12 12 10 10 9 9 8 8 9 9 10 10 9 10 10 10 9 9 10 12 13 13 12 12 13 13 13 13 12 10 9 10 11 12 13 14 14 15 16 17 17 17 19 20 20
11 10 10 11 11 10 10 11 11 11 12 14 14 13 12 12 12 11 12 11 10 10 10 9 9 9 10 10 10 11 10 10 10 10 9 9 9 11 11 12 12 12 13 14 14 14 14 13 12 12 11 10 11 12 14 16 16 17 17 18 19 20 19
10 8 9 10 11 10 10 11 11 10 12 14 14 13 13 13 13 12 11 11 11 11 11 9 9 10 11 11 11 11 10 10 10 10 10 9 10 11 12 12 13 13 13 14 14 14 15 14 13 12 11 11 11 12 14 15 15 16 17 18 19 19 19
9 8 9 10 10 8 8 9 9 9 10 12 13 14 15 15 14 14 13 13 12 12 11 10 10 11 12 12 12 12 11 11 10 10 10 11 11 12 12 13 13 14 14 14 14 15 14 13 13 12 12 12 13 13 14 15 15 16 18 18 18 19 20
8 9 10 10 9 8 8 8 8 9 10 11 13 15 16 16 16 16 16 15 13 12 11 11 11 11 12 12 13 13 12 11 10 10 11 11 12 13 13 14 14 15 14 14 15 15 15 13 12 12 12 13 14 15 17 17 17 18 18 18 18 19 19
8 9 11 12 11 9 8 8 8 9 10 11 14 16 17 18 18 18 18 17 15 13 13 13 12 11 12 12 13 14 13 12 10 10 11 12 13 13 14 14 14 14 14 14 15 16 16 15 13 12 12 13 14 16 18 19 19 19 18 18 19 20 19
8 8 10 11 10 9 9 8 8 10 11 12 15 17 18 19 19 19 19 18 17 16 15 14 13 12 13 13 14 14 13 12 11 10 11 12 13 14 14 13 13 13 14 14 15 16 16 16 16 14 14 14 15 17 18 19 20 18 17 19 20 20 22
9 9 9 10 10 10 10 9 9 9 11 12 15 18 19 19 20 20 19 19 18 17 16 14 13 13 14 14 15 14 13 12 12 11 12 13 13 14 14 13 14 14 14 14 15 16 16 16 17 17 17 18 19 19 17 17 18 17 17 19 19 20 23
12 12 12 12 11 11 10 10 9 10 12 13 15 17 18 19 20 20 20 20 19 17 16 14 13 14 15 15 15 14 13 12 13 13 13 13 13 14 14 14 15 15 15 14 15 16 16 16 16 18 19 19 20 19 17 16 16 15 16 17 18 20 21
13 14 14 13 12 11 10 10 10 11 12 12 14 17 17 18 20 21 21 20 19 18 16 14 14 14 15 16 15 14 13 13 13 13 12 12 13 13 13 14 15 15 15 15 15 16 15 15 16 17 18 19 18 18 17 16 14 13 15 15 16 19 20
13 13 13 14 13 11 10 9 9 11 12 14 16 18 19 20 21 22 21 20 19 18 15 13 14 15 15 16 15 14 14 13 13 12 12 12 13 12 13 14 15 15 15 15 15 15 15 15 17 17 18 18 17 17 16 14 11 12 15 14 14 18 20
14 14 14 13 12 11 11 11 10 12 13 15 18 21 22 22 22 23 23 21 19 17 14 14 15 16 16 16 15 15 14 13 12 12 12 12 12 12 13 15 15 15 14 14 14 15 15 16 16 17 17 17 17 17 15 13 11 13 14 14 15 17 20
13 14 13 13 13 12 12 12 12 14 16 18 21 24 25 25 24 24 23 21 18 14 14 15 16 17 17 17 16 15 15 14 12 12 12 12 12 12 14 15 15 15 14 14 14 15 15 16 15 15 15 16 17 17 16 14 13 14 14 14 16 18 20
12 12 13 12 13 12 11 11 12 14 17 22 25 26 26 25 24 24 22 19 16 14 13 15 17 18 19 18 17 16 15 15 14 13 13 12 11 12 14 15 15 14 13 13 14 15 16 16 14 13 14 15 16 17 17 17 16 14 13 14 16 19 20
11 12 12 12 12 11 10 11 11 12 17 24 26 25 25 25 25 25 23 19 16 15 14 15 17 19 19 19 19 18 17 17 15 14 12 11 11 13 14 15 15 14 13 13 13 15 16 16 14 13 13 14 15 17 17 17 16 13 13 14 16 18 19
12 13 13 12 12 12 13 16 18 20 23 25 25 24 25 26 26 25 23 20 18 17 16 16 17 18 20 19 19 18 17 16 14 13 11 11 11 12 13 14 14 13 12 12 13 14 15 14 13 13 14 14 15 16 16 16 14 11 11 13 15 18 18
11 12 11 12 13 14 19 23 24 25 25 24 24 25 27 27 27 26 23 21 19 18 17 17 18 19 20 19 17 16 15 14 12 11 11 10 11 12 12 13 12 12 11 11 12 13 14 14 15 15 15 15 15 15 15 16 13 9 9 11 13 16 18
8 8 9 10 11 12 17 22 22 22 22 22 23 26 27 28 27 25 23 21 20 18 16 16 18 20 20 19 17 16 14 13 12 11 10 10 11 12 12 12 12 10 10 11 12 13 14 15 16 17 16 15 15 14 14 15 12 8 8 10 12 15 17
7 8 9 11 12 14 18 20 20 20 20 22 24 26 27 27 27 24 22 21 20 17 15 17 20 21 20 19 17 15 14 13 12 12 11 11 11 12 12 12 10 9 9 10 11 13 15 16 17 17 16 15 15 14 12 13 12 9 8 10 12 14 16
8 9 10 11 13 16 18 18 19 19 21 25 29 27 25 25 24 22 22 21 19 17 17 19 21 20 18 16 14 12 12 13 13 12 12 11 11 12 11 10 9 8 9 10 10 12 15 15 16 16 15 14 14 13 10 10 11 10 10 11 13 14 16
8 8 9 11 13 16 17 18 20 23 26 29 28 24 22 23 22 22 22 21 19 20 22 21 20 18 16 13 11 10 11 12 13 13 12 11 11 11 10 8 7 8 10 10 10 12 14 15 15 15 15 15 14 12 9 8 9 10 9 11 12 13 15
6 7 8 9 13 17 18 17 20 25 27 25 22 19 19 21 22 21 20 20 21 24 24 22 19 16 12 10 10 10 11 12 14 14 13 12 12 11 9 7 7 9 10 10 10 12 14 15 15 15 15 15 15 13 10 7 8 9 9 10 12 13 13
7 8 10 11 13 15 15 14 18 22 18 14 14 15 16 19 21 20 19 20 24 25 23 20 18 13 10 9 10 11 12 13 14 15 14 12 11 10 8 7 7 9 9 9 10 11 12 13 14 14 13 14 14 13 11 8 8 8 9 9 11 13 14
7 7 9 10 9 8 9 11 13 12 8 7 10 13 15 18 20 18 19 22 24 22 20 18 15 11 10 10 11 12 14 14 14 15 14 11 10 9 8 7 8 8 8 9 9 10 10 11 11 12 12 12 13 14 12 11 9 7 8 8 10 12 14
4 4 4 5 5 3 5 8 9 7 7 9 11 11 14 18 19 17 19 21 21 18 17 16 13 11 10 10 11 14 15 15 15 14 13 10 9 9 8 7 7 8 8 8 8 8 8 10 10 10 11 11 12 13 13 13 11 9 9 8 8 10 13
2 2 3 4 4 4 5 7 7 8 8 9 11 12 15 18 18 17 18 18 16 15 15 14 12 11 10 10 11 14 15 16 15 13 12 11 10 10 8 8 7 7 7 6 6 6 6 8 9 9 10 11 11 12 14 14 11 11 12 10 8 10 11
1 2 3 5 5 6 6 6 8 10 10 10 12 14 15 16 17 17 16 15 13 13 13 12 10 9 9 9 10 12 14 15 14 12 12 12 12 10 9 8 7 5 4 3 4 4 5 6 7 8 9 10 11 13 14 12 10 12 16 14 12 11 12
2 2 4 6 7 7 7 8 9 11 10 9 9 11 12 13 14 14 13 12 11 11 11 10 10 9 8 7 7 8 11 13 12 11 13 14 13 11 9 8 5 2 1 1 2 3 3 4 5 6 8 9 10 12 13 11 10 14 18 17 15 15 13
2 3 4 5 6 7 7 8 9 9 7 5 6 8 10 10 9 8 8 9 9 10 9 9 8 7 5 4 4 6 7 8 8 10 11 12 12 12 10 7 3 3 3 2 0 1 2 3 4 6 7 7 8 10 12 12 14 17 18 15 14 15 14
1 3 3 4 4 4 5 5 5 5 4 3 4 5 5 5 6 6 6 7 8 9 9 8 6 5 4 3 3 3 4 4 6 8 10 11 12 10 7 4 3 4 5 4 3 2 3 4 6 8 9 6 6 9 11 12 16 18 17 14 12 12 12
0 1 1 1 1 2 2 3 2 2 2 2 3 3 3 3 4 5 6 7 8 8 8 7 5 4 3 2 2 3 3 3 5 7 9 12 13 9 6 7 8 7 6 6 5 5 5 7 8 10 11 10 8 9 11 13 15 16 16 14 10 8 7
2 2 2 2 2 1 1 1 1 1 1 2 2 3 3 4 5 6 7 8 8 7 6 5 4 3 2 3 4 5 4 3 4 5 7 9 9 7 7 9 11 12 11 9 9 8 8 9 9 10 11 12 12 12 13 15 15 15 14 12 9 7 7

ECMWFFLT1_925_spd_015.txt.gz
Wind_Speed
17 17 17 15 15 15 15 18 21 21 21 20 20 20 20 18 17 15 14 14 13 12 12 11 11 9 8 6 5 4 4 3 4 4 5 5 6 6 7 8 9 10 10 10 10 10 10 10 10 10 10 10 10 10 9 7 8 9 9 10 11 11 10
16 16 17 17 17 16 18 22 23 22 22 21 20 21 20 19 18 16 14 14 14 13 13 12 11 9 7 6 5 5 4 4 4 5 5 6 6 6 7 8 9 10 10 10 10 10 10 10 10 10 11 11 10 10 9 8 8 9 10 11 11 11 11
15 16 17 17 17 17 18 21 23 23 23 22 21 22 21 20 19 17 15 14 14 13 13 12 11 9 7 7 6 6 5 5 5 5 6 6 6 7 8 8 9 10 9 10 9 10 10 10 10 10 10 11 11 10 10 10 10 10 11 11 10 10 11
15 17 17 17 17 17 18 22 23 23 23 22 22 23 22 21 19 17 15 14 14 14 14 13 11 10 8 7 7 6 6 6 6 6 6 7 7 7 8 8 9 9 9 9 9 9 9 10 10 10 10 11 11 10 10 10 10 10 10 10 10 11 11
15 16 16 16 17 16 17 21 23 23 23 23 23 22 22 22 19 17 15 15 15 15 14 13 11 10 9 8 8 7 6 6 6 6 6 7 7 7 8 8 9 9 9 9 9 9 9 10 10 11 11 11 11 10 10 10 10 11 11 10 11 11 11
12 14 14 15 16 16 16 20 23 24 24 24 23 22 22 22 20 18 17 16 15 15 14 13 12 10 9 9 8 7 6 6 6 7 7 7 7 8 8 8 9 9 9 9 9 10 10 11 11 11 11 11 11 11 10 10 10 11 10 10 10 10 11
11 13 14 15 15 16 17 21 24 25 24 24 23 22 22 21 20 18 17 16 16 15 14 13 12 11 10 9 8 8 7 7 7 7 7 7 7 8 8 9 10 10 10 10 10 11 11 11 11 12 12 12 11 12 11 10 11 10 10 9 9 9 10
11 12 14 15 15 15 16 19 23 24 24 23 23 22 22 21 19 18 17 17 16 15 14 13 13 12 10 9 8 8 8 7 8 7 7 7 7 8 9 10 11 11 10 11 11 11 11 12 12 12 12 12 12 12 11 11 11 10 10 10 10 10 10
11 12 13 14 15 14 15 19 23 24 23 23 23 22 22 20 18 18 17 16 15 14 14 13 12 13 12 10 9 8 8 8 8 8 8 8 8 9 10 10 11 11 10 11 11 11 11 12 12 13 13 13 13 12 11 11 11 10 10 11 11 11 11
10 12 13 14 14 14 15 19 21 21 22 22 22 22 21 19 17 16 15 14 13 13 13 11 9 10 11 10 9 8 8 8 8 8 8 9 9 9 10 11 12 11 10 11 12 12 12 12 12 12 13 14 14 13 12 11 12 11 12 12 12 12 12
9 11 13 14 15 15 17 18 16 18 21 22 22 22 21 18 16 15 14 13 12 11 12 11 9 8 10 10 9 8 8 8 8 8 9 9 9 10 11 11 11 11 11 12 13 13 13 13 12 11 13 15 14 13 13 13 13 13 13 13 12 13 14
9 10 12 15 16 16 17 16 15 18 22 22 23 22 20 19 17 15 14 12 11 10 9 9 8 8 8 8 8 8 7 8 8 8 8 9 9 9 10 11 11 12 13 13 13 14 14 14 13 12 13 15 13 13 15 15 14 13 13 13 13 14 14
9 10 11 12 14 14 15 15 16 18 22 23 23 22 21 19 17 15 14 13 12 10 9 8 8 7 7 7 7 6 7 7 7 8 8 8 9 9 10 11 12 12 13 13 13 15 15 15 14 13 14 15 13 13 14 15 14 13 12 13 13 14 14
11 12 11 12 13 14 15 16 16 17 21 23 23 22 21 19 18 17 16 15 13 11 10 9 9 9 8 8 7 6 7 7 7 8 8 8 9 9 10 11 12 12 13 13 13 15 15 16 16 15 14 15 14 14 14 14 13 11 11 11 12 13 14
12 13 13 14 15 16 16 16 16 17 21 23 23 22 21 19 19 17 15 14 14 12 11 10 10 10 9 8 8 7 7 7 7 8 8 9 9 9 10 11 12 13 13 13 14 15 16 16 16 15 15 15 15 14 13 13 11 10 11 12 13 14 15
12 13 14 15 15 16 16 16 17 18 21 23 23 23 22 19 18 16 15 15 15 14 12 11 11 11 10 9 9 8 8 8 8 8 9 9 9 9 10 11 12 13 13 13 14 15 15 15 15 15 15 15 15 14 12 12 11 11 13 14 15 16 16
11 12 13 14 15 16 16 17 18 19 21 23 24 24 22 20 19 18 18 18 17 15 13 12 12 11 11 11 10 9 9 9 9 10 10 10 10 10 10 11 12 12 12 13 14 14 14 14 14 15 15 14 14 13 12 12 13 12 12 14 16 17 16
10 11 12 13 15 15 17 18 18 19 21 24 26 25 23 22 22 21 21 18 16 16 14 13 12 12 12 12 11 10 10 10 10 11 10 10 10 10 10 11 11 12 12 13 13 13 13 13 14 14 15 14 13 13 13 14 14 14 13 15 16 17 16
9 10 11 12 13 15 16 16 17 20 23 25 26 25 24 23 22 22 20 18 16 15 14 14 13 13 13 12 12 12 12 12 11 11 11 11 11 10 10 11 11 12 12 12 13 13 13 13 14 14 14 14 13 14 14 14 14 14 14 15 16 16 17
8 8 10 10 12 13 13 13 16 20 23 25 26 25 24 23 21 20 19 18 16 15 14 14 13 13 13 13 13 13 13 13 13 12 12 12 11 11 11 11 11 11 11 12 13 12 12 13 13 13 13 13 13 14 14 14 14 13 13 15 16 17 17
7 8 9 10 11 11 12 13 16 20 22 23 24 23 22 21 19 18 18 17 17 16 15 14 13 14 14 14 14 14 14 13 13 13 12 12 12 12 12 12 11 11 11 12 12 12 13 13 13 13 13 12 13 13 14 14 13 12 13 15 16 16 17
8 9 8 9 10 11 12 14 17 19 21 21 21 21 20 19 18 17 17 17 17 17 16 15 15 15 15 15 15 15 15 14 13 13 12 12 12 12 12 12 11 11 11 11 12 12 12 13 13 13 12 12 13 13 15 14 13 13 13 14 15 16 16
8 9 9 10 11 12 14 16 17 19 20 20 20 19 18 18 17 17 16 17 17 17 16 16 16 16 16 16 16 16 16 15 13 13 13 12 13 13 12 12 11 11 11 11 12 12 12 13 13 12 12 13 13 13 15 15 14 14 13 13 14 15 14
8 9 10 11 12 14 15 15 16 18 18 18 18 18 17 16 16 16 16 17 17 17 17 16 17 17 17 17 17 17 16 15 13 13 13 13 13 13 13 12 12 11 11 11 11 12 12 12 12 12 12 13 13 14 15 16 17 16 12 10 13 15 13
9 11 12 13 13 14 16 16 16 16 16 16 17 16 16 15 15 15 15 17 18 17 17 18 18 18 18 17 17 16 15 14 14 13 13 13 14 14 13 13 12 12 12 12 11 12 12 11 11 12 12 12 14 16 15 15 16 13 10 9 12 15 13
10 12 12 14 15 15 16 16 16 15 16 16 15 15 14 14 14 14 15 16 17 18 18 19 19 18 17 17 16 16 15 14 14 14 14 14 14 14 14 13 13 13 12 12 12 12 11 10 11 13 13 12 13 14 15 16 13 9 8 12 15 16 15
12 14 14 15 16 16 15 15 15 15 15 14 13 12 12 12 13 13 14 15 16 18 19 19 19 17 16 17 17 17 16 15 15 15 15 14 14 14 14 14 14 13 13 13 12 11 10 10 11 13 14 13 12 14 16 16 11 7 8 13 15 15 15
13 14 14 16 16 15 15 14 13 13 13 11 11 10 10 11 12 12 13 14 16 18 18 18 18 17 17 19 18 18 17 17 16 16 15 14 14 14 14 14 14 13 13 13 12 10 10 11 12 13 14 13 13 15 16 12 6 5 8 11 12 14 16
13 14 15 16 15 13 13 13 11 12 12 11 10 10 9 11 12 11 12 13 15 16 16 17 18 18 19 20 19 19 18 17 16 16 15 14 14 15 15 15 14 14 14 14 13 12 11 11 12 12 13 13 13 14 14 10 5 5 7 8 11 15 17
13 14 15 15 15 13 12 11 10 10 9 8 8 8 9 9 9 10 12 13 14 15 15 17 18 19 20 20 19 19 17 16 16 16 15 14 14 14 14 14 15 15 13 13 13 12 12 12 11 11 11 13 13 13 13 9 4 3 5 7 11 16 17
13 14 14 14 13 12 11 9 8 7 6 5 4 5 6 7 8 10 12 13 13 13 14 16 16 18 18 17 17 16 16 16 16 15 15 15 14 15 14 14 15 14 12 13 15 14 12 11 10 10 11 12 12 12 12 8 3 2 6 9 13 16 16
12 12 13 12 11 10 9 7 7 7 6 5 5 5 6 6 7 10 11 11 11 12 13 13 14 16 16 15 15 16 16 16 15 14 15 15 15 16 15 14 14 12 10 14 18 14 11 10 10 10 10 12 13 12 11 11 7 5 7 9 13 15 15
10 10 11 11 11 9 7 6 6 5 4 3 4 4 5 5 6 8 9 9 11 12 12 12 13 15 16 15 15 15 14 14 15 15 14 14 16 18 16 12 11 9 7 14 19 15 10 11 11 10 9 11 12 11 10 11 9 7 9 13 15 15 16
11 11 12 12 10 8 7 6 5 4 3 3 2 1 3 5 7 9 10 11 12 12 11 11 12 13 14 13 12 12 13 14 15 14 13 13 15 15 11 8 8 7 9 15 18 13 10 10 9 9 9 10 10 9 10 10 8 9 12 16 16 16 17
11 13 13 11 10 9 8 7 6 5 5 4 2 1 2 4 6 9 11 11 11 11 10 10 10 11 11 11 12 13 15 15 14 12 12 14 13 10 9 9 8 7 9 13 14 11 9 8 7 7 8 8 8 7 6 6 7 9 13 15 15 15 15
12 13 12 11 11 10 9 8 6 5 4 4 2 1 1 3 5 7 9 10 9 7 7 8 9 10 12 14 15 16 16 14 13 13 16 17 13 10 10 10 9 9 10 12 12 11 11 10 8 8 7 6 4 3 4 5 7 11 13 13 14 14 13
12 11 11 10 10 9 8 7 6 5 5 4 2 1 1 3 3 4 6 6 5 5 6 8 9 11 13 14 13 12 12 11 12 14 16 14 10 12 11 9 9 9 8 8 9 9 8 7 7 7 6 3 1 1 4 6 8 11 13 13 15 14 11
11 10 9 8 9 8 7 6 6 5 5 4 2 1 1 2 2 3 4 5 4 4 7 8 9 11 13 14 12 11 11 12 13 13 14 12 7 11 11 8 6 6 6 6 7 6 6 5 4 2 2 3 4 2 3 6 8 10 12 13 14 13 9

ECMWFFLT1_925_spd_021.txt.gz
Wind_Speed
12 13 14 13 13 13 13 16 21 24 25 27 28 29 30 31 32 32 32 32 31 30 29 27 25 23 20 18 16 14 13 11 9 8 7 6 6 6 5 5 4 4 3 4 4 4 5 6 5 4 5 7 8 8 7 7 7 8 8 7 8 9 8
12 11 12 13 12 13 14 18 23 25 25 27 29 29 30 32 33 33 33 33 32 31 30 28 25 23 21 18 16 15 14 11 10 10 9 7 6 5 4 5 5 5 4 4 4 5 4 4 4 4 6 8 8 8 8 8 8 8 8 8 8 9 9
12 11 12 13 13 13 15 18 23 26 27 29 30 30 30 33 35 35 34 33 31 30 29 28 25 22 21 19 17 16 14 12 12 11 9 6 5 5 5 6 6 6 5 4 4 4 4 4 4 4 6 7 7 8 8 8 9 8 7 8 9 9 9
13 11 12 14 13 14 15 17 22 26 28 30 32 32 32 33 34 34 34 34 32 31 30 28 26 23 21 19 18 17 16 14 13 11 8 7 6 6 7 7 7 7 6 5 5 5 4 4 3 4 6 6 7 8 8 8 8 8 7 8 8 9 10
12 10 11 12 11 12 13 15 21 25 27 30 32 32 32 32 31 31 32 33 32 31 31 28 26 23 21 20 19 18 16 15 14 12 10 9 8 8 9 8 8 7 7 8 8 7 6 5 5 6 6 6 7 8 8 8 8 8 8 8 9 10 10
10 9 10 11 10 11 12 15 21 27 29 30 32 32 31 30 30 29 29 30 29 29 29 27 25 24 22 20 19 17 16 15 14 13 12 10 10 10 10 9 8 8 10 11 9 9 9 8 7 6 6 7 8 7 7 8 8 8 8 9 9 10 9
9 8 10 12 11 12 13 15 21 27 28 29 29 29 29 30 29 28 28 28 28 27 28 27 26 25 23 22 19 18 16 16 15 14 12 11 10 10 10 9 10 11 11 11 11 11 12 10 8 7 8 9 9 8 7 7 8 8 9 9 9 8 8
10 8 9 12 12 13 13 14 19 24 26 27 28 28 29 29 29 28 28 28 28 28 28 28 26 26 24 23 21 19 17 17 17 15 13 12 11 10 10 11 11 12 12 13 13 13 14 14 12 11 10 10 11 10 8 6 6 7 9 9 9 8 8
11 11 11 12 12 12 12 14 19 23 24 26 28 29 29 29 29 29 28 29 29 28 28 27 27 27 25 24 22 20 18 17 16 15 13 12 12 11 12 12 13 13 14 15 14 14 16 16 14 13 11 12 14 13 9 7 6 7 9 10 9 9 9
10 12 12 11 11 10 10 13 17 19 21 23 25 27 29 29 29 29 29 29 29 29 28 27 27 28 26 25 22 20 19 17 16 16 14 13 14 14 14 13 14 14 11 9 10 11 11 10 9 9 10 11 14 14 11 8 6 7 9 9 9 10 11
9 10 11 11 11 9 11 12 13 15 19 22 23 26 28 29 30 29 29 31 29 29 29 28 28 29 27 26 23 21 20 18 17 17 16 15 15 16 15 14 14 10 6 4 4 3 4 5 5 6 8 8 9 9 9 7 7 8 9 9 10 11 12
7 8 10 12 12 11 12 13 12 14 19 22 24 25 26 28 30 29 29 31 30 30 30 29 29 30 29 26 25 22 21 20 21 19 18 17 17 15 14 14 13 10 7 7 6 5 6 6 5 6 7 6 4 4 7 8 8 10 10 10 10 12 12
7 8 9 11 11 11 12 12 12 14 19 23 25 26 26 28 30 29 27 29 31 31 32 31 31 31 29 27 26 26 23 22 23 22 19 18 17 14 14 14 13 12 10 10 10 10 8 6 6 7 7 7 8 10 11 10 10 11 11 10 10 11 11
8 8 9 10 11 11 12 12 12 13 17 22 24 25 26 27 29 30 28 27 31 33 33 32 32 32 30 28 28 28 25 24 25 23 20 19 17 16 16 16 15 14 14 14 13 11 8 6 7 8 9 11 13 12 10 10 10 9 9 10 11 11 9
9 9 9 10 12 12 12 12 12 12 15 20 22 23 24 25 27 30 28 26 29 32 33 32 33 33 31 29 28 30 29 27 26 23 20 19 19 18 18 18 17 16 16 15 12 9 8 9 9 10 12 12 11 10 9 10 10 9 9 10 11 10 9
9 9 10 11 12 13 13 12 12 12 14 18 22 23 24 25 27 29 28 26 26 29 32 33 34 33 31 27 26 30 31 28 25 23 21 22 22 22 21 19 18 17 16 14 12 11 11 11 11 11 12 11 11 11 11 10 10 10 10 10 10 10 10
8 9 10 11 11 12 12 12 12 11 12 18 23 24 25 27 28 29 28 27 28 30 33 34 33 32 30 23 22 27 30 28 26 24 24 24 23 22 21 19 17 17 16 14 14 13 12 11 12 12 11 11 12 13 12 11 10 11 11 11 12 12 12
6 7 9 10 10 11 12 13 13 13 14 19 23 25 26 27 28 29 29 29 28 28 30 30 27 26 23 17 19 26 28 27 26 26 25 24 23 21 20 18 18 18 17 17 16 14 13 12 13 12 12 13 13 12 12 12 12 12 12 11 10 11 12
2 4 7 9 9 10 12 12 12 15 18 22 24 26 28 31 31 30 29 28 27 25 23 22 23 23 18 15 22 29 28 26 27 26 25 24 22 21 20 19 19 20 20 19 17 15 14 13 13 13 13 13 12 12 13 14 14 11 8 7 7 8 9
2 2 4 7 9 10 10 10 11 16 21 25 26 27 29 31 31 29 28 28 27 25 22 21 23 24 21 22 28 31 28 26 26 26 25 24 23 22 22 22 22 22 21 20 17 16 15 14 13 13 12 11 11 13 15 16 13 9 7 8 9 8 8
4 4 3 6 8 9 9 9 11 15 19 22 25 27 28 29 29 29 29 30 31 29 24 20 21 24 26 28 30 30 28 28 27 27 26 24 23 24 24 24 24 24 22 20 18 17 16 15 13 12 11 11 13 15 16 14 11 9 10 10 9 8 9
7 7 6 7 8 9 12 15 17 19 21 24 28 28 28 30 31 31 32 32 32 30 25 20 20 25 28 29 30 29 29 28 27 27 27 26 26 26 27 27 27 26 23 21 20 18 17 16 15 13 13 14 15 16 15 13 11 10 11 10 8 8 9
6 7 8 8 8 11 19 24 24 23 25 27 29 29 30 31 32 32 31 30 29 27 24 22 23 27 30 30 31 30 29 29 29 28 28 27 27 28 29 29 28 26 24 22 21 20 18 18 16 15 16 16 15 14 13 12 11 10 10 9 8 9 8
3 5 7 8 8 9 16 22 25 26 28 29 28 28 32 34 34 32 30 28 28 27 25 24 25 27 30 32 31 30 30 30 29 29 29 29 30 31 31 29 28 27 25 23 22 21 20 19 18 16 15 14 13 13 13 13 12 10 9 10 10 10 7
1 5 9 12 12 12 14 20 24 26 27 27 26 29 34 36 34 32 29 27 28 27 24 25 27 28 31 32 32 30 29 29 30 30 30 31 32 32 30 29 28 26 24 23 22 21 21 20 19 18 17 15 15 14 12 12 10 9 9 10 11 9 7
6 8 10 12 14 13 14 19 23 25 26 27 28 31 35 36 33 30 28 27 25 24 25 26 28 30 32 31 29 28 28 29 30 31 32 34 35 34 32 31 29 26 24 23 21 21 21 21 21 20 17 16 15 12 9 8 8 9 10 10 10 8 7
11 13 13 14 15 14 13 14 17 22 24 27 30 33 35 35 32 28 26 24 23 24 27 29 29 29 29 28 28 27 28 29 30 33 36 35 30 25 22 22 21 20 20 19 18 20 21 21 21 20 16 12 11 10 9 8 8 10 10 10 8 7 6
10 12 13 15 16 15 13 12 13 19 23 27 31 34 35 34 29 27 25 24 26 27 27 27 28 28 28 27 27 27 28 30 32 31 25 17 9 7 9 10 11 10 10 14 18 19 18 16 16 16 15 13 11 10 10 10 10 10 9 8 6 5 5
8 9 10 13 15 15 14 10 6 7 16 26 31 31 33 32 27 25 25 22 23 22 17 15 19 23 26 27 27 28 29 29 26 19 14 12 11 11 12 12 10 9 10 14 16 14 13 11 11 11 12 13 12 12 12 11 10 9 8 7 6 6 5
7 8 9 11 12 11 12 14 12 9 7 11 25 28 28 29 25 21 20 18 15 14 11 8 9 11 14 17 18 21 23 20 14 10 11 14 12 9 10 13 13 11 11 12 11 10 14 17 13 10 10 11 12 12 10 9 9 8 7 7 7 6 5
7 10 11 13 16 18 18 17 17 6 15 14 13 26 25 24 23 20 18 15 12 9 7 6 7 7 8 6 6 8 10 11 9 6 6 6 5 4 9 14 16 14 12 11 11 10 13 18 19 15 12 10 11 11 8 7 8 8 7 7 7 6 5
9 12 14 16 19 22 20 16 16 13 8 21 4 19 23 20 20 19 15 12 8 7 8 9 8 7 6 4 2 4 4 5 6 5 4 6 8 10 11 11 12 13 13 14 13 11 12 15 19 20 17 13 12 11 9 8 8 7 7 8 8 7 5
9 11 12 16 19 22 23 19 16 14 3 16 7 15 21 18 18 16 12 11 9 8 9 7 6 6 5 4 3 3 3 3 5 7 8 10 11 12 12 11 11 11 12 14 15 15 15 17 20 22 20 15 12 11 10 9 8 7 9 11 10 7 6
8 10 12 17 22 22 22 20 18 17 8 8 6 13 21 17 15 14 11 12 10 6 5 5 4 5 6 5 4 3 4 6 8 10 10 9 8 8 9 10 9 9 10 12 15 18 19 20 20 20 15 12 11 10 9 9 10 10 11 11 9 7 7
8 12 13 16 21 24 22 19 18 23 20 5 4 11 19 15 13 13 11 9 4 1 4 7 6 5 4 3 2 3 6 9 10 10 9 7 7 8 8 8 7 8 9 12 14 18 19 19 19 17 11 9 10 11 11 12 13 13 12 10 8 8 8
8 12 14 17 20 24 25 22 18 21 24 18 10 9 13 13 12 10 6 1 2 3 5 6 6 5 4 2 1 3 5 7 8 8 7 8 10 10 7 6 5 6 8 11 14 16 15 13 14 14 11 8 8 9 11 13 14 12 11 9 9 9 7
11 12 14 18 20 20 21 23 21 19 20 20 15 10 11 12 8 3 1 4 6 6 6 5 5 4 4 3 1 0 1 2 3 5 6 8 11 11 9 7 6 5 5 7 10 11 10 8 6 7 7 6 5 5 6 9 11 11 10 9 9 8 6
13 16 17 17 18 18 18 19 20 18 16 18 17 12 9 6 5 5 6 10 10 8 6 6 5 4 3 2 2 4 5 4 3 6 8 10 11 12 12 11 9 7 5 6 7 7 6 5 4 3 3 4 5 6 8 10 10 9 8 7 6 6 4

ECMWFFLT1_925_spd_024.txt.gz
Wind_Speed
15 15 15 13 14 15 15 17 22 25 27 29 31 34 35 35 35 35 35 36 35 34 33 32 31 30 29 26 23 22 22 20 19 18 16 14 14 14 14 14 12 10 10 9 7 8 8 6 4 4 4 3 3 2 2 3 4 4 4 4 3 4 5
14 13 13 13 14 15 15 19 24 26 27 29 31 33 34 35 37 37 36 36 36 35 35 34 32 31 29 26 24 23 22 21 19 17 15 14 14 13 13 12 10 11 10 8 7 8 8 7 5 4 4 4 3 2 2 3 4 5 5 5 4 3 4
13 12 14 14 14 14 15 18 23 26 28 29 30 33 35 37 39 40 39 38 36 35 35 34 33 32 30 27 26 24 23 21 20 17 15 14 13 13 12 11 11 11 9 8 8 8 8 7 6 5 5 4 4 4 3 3 4 5 6 6 6 5 5
14 14 15 16 15 14 14 17 22 26 29 32 34 36 38 39 41 41 40 40 38 36 35 35 34 33 31 29 28 26 25 23 20 17 16 13 12 13 13 12 12 10 9 9 9 9 8 7 7 7 7 6 5 5 5 4 4 5 5 6 6 7 8
14 13 13 13 13 12 12 15 22 27 30 32 35 37 38 39 39 39 40 40 40 39 38 37 36 34 33 31 29 27 26 24 21 18 16 14 13 14 13 13 12 10 10 10 9 10 9 9 9 10 9 7 7 6 6 6 6 6 6 7 7 8 9
11 11 12 12 12 12 13 15 23 29 31 33 35 35 36 37 37 38 39 39 39 38 36 36 35 34 34 32 30 27 26 24 21 19 17 15 14 14 13 12 12 12 11 11 11 11 11 12 12 12 10 9 8 8 7 6 7 8 9 9 9 9 10
11 11 12 12 12 13 13 16 23 29 31 33 33 32 32 35 36 37 37 37 38 36 35 35 35 35 34 33 31 28 27 25 22 20 19 17 15 14 13 12 12 13 12 13 12 13 14 14 14 13 12 10 11 11 9 8 7 7 8 10 10 9 10
14 12 13 13 13 14 13 15 21 26 27 27 28 29 31 33 33 34 35 36 36 36 36 36 36 35 34 33 31 30 28 26 23 21 20 18 16 14 13 12 11 12 13 13 13 14 15 15 15 15 14 13 13 14 13 11 9 8 9 10 11 10 10
13 12 13 13 13 13 12 15 21 25 25 27 29 30 31 32 32 33 35 35 35 35 36 36 36 35 34 33 32 30 28 26 23 22 21 19 17 15 13 11 10 11 12 13 13 14 16 17 17 17 17 17 17 17 16 15 12 10 10 10 10 9 10
10 10 11 11 12 11 11 14 18 20 22 24 26 28 29 31 32 32 33 34 34 35 37 36 35 34 33 33 32 30 28 26 24 23 23 21 19 16 13 11 11 12 13 12 13 15 16 16 16 15 15 16 16 17 18 17 15 12 11 11 9 8 9
9 10 9 10 10 10 10 12 13 15 19 23 25 27 29 31 31 31 33 34 34 34 35 36 34 34 34 33 32 30 29 27 26 26 24 23 20 17 14 12 13 13 13 13 14 14 12 12 12 11 10 10 11 12 13 13 14 13 12 12 11 10 10
9 9 10 11 11 11 11 12 12 14 19 23 25 27 29 30 31 31 32 33 34 34 34 34 34 34 34 33 32 32 30 29 28 27 25 24 21 17 15 15 16 16 15 14 13 13 12 11 10 10 9 8 8 8 8 9 11 13 13 13 13 12 12
10 9 10 11 11 11 11 12 13 15 19 23 26 28 30 31 31 32 32 33 33 33 34 33 33 34 34 33 33 33 33 31 29 27 26 24 21 17 16 17 18 17 16 15 15 14 13 11 10 10 9 8 8 7 7 8 9 11 12 13 13 13 13
11 10 10 10 11 12 13 14 14 14 17 22 25 26 29 30 31 33 33 33 33 33 33 33 33 34 34 33 34 34 34 32 29 27 26 24 21 18 17 18 19 18 17 16 16 15 13 12 11 10 9 9 9 9 10 9 9 10 11 12 13 14 13
11 12 11 11 12 13 14 15 14 14 16 21 23 25 27 28 30 31 32 33 33 33 34 34 33 34 35 34 34 35 35 32 29 27 25 24 22 19 20 21 20 20 19 18 18 17 16 14 11 10 11 11 11 11 11 10 10 10 11 12 12 13 13
12 12 12 13 13 13 14 15 15 15 15 18 22 24 26 27 29 31 32 33 33 34 35 35 34 35 35 35 35 36 36 33 30 27 26 25 23 21 21 22 21 21 21 21 20 19 17 14 12 12 13 14 13 13 12 11 11 10 11 12 13 13 13
12 11 11 12 12 13 13 14 14 14 14 18 24 27 28 29 31 32 33 34 35 35 36 37 37 37 37 37 37 38 36 34 31 28 27 26 24 22 22 23 22 22 22 22 21 20 17 15 14 15 15 15 15 15 14 12 11 11 12 14 15 15 15
10 11 11 11 12 12 13 13 13 13 14 19 25 27 29 30 30 30 31 33 35 36 36 38 38 38 38 38 38 37 36 35 33 30 28 26 25 24 24 24 24 23 24 24 22 21 18 17 17 16 16 16 16 16 16 15 13 12 13 15 16 16 17
9 9 10 10 10 11 13 12 12 14 18 22 26 30 33 34 33 33 34 35 36 37 37 38 39 39 39 38 38 36 36 36 34 31 29 27 26 26 26 26 26 26 27 26 24 21 20 20 19 18 18 18 18 18 18 17 14 13 14 15 15 15 15
8 8 8 8 9 10 10 10 11 16 21 25 29 33 34 34 33 34 35 35 36 36 37 37 37 37 37 36 36 35 34 33 33 32 31 29 28 28 28 27 28 29 28 26 23 22 22 22 21 19 18 19 19 19 19 17 15 15 16 16 14 13 12
8 8 8 8 9 9 8 8 10 14 19 25 29 30 29 30 30 31 33 34 34 35 37 38 37 36 36 33 32 31 30 29 30 32 32 30 29 29 29 28 29 29 28 26 24 24 24 24 23 21 19 19 19 20 19 18 16 16 16 15 14 12 11
9 9 8 9 10 10 11 13 15 19 22 24 25 25 27 29 31 31 31 32 33 33 35 35 32 28 28 28 27 26 25 25 29 32 32 31 29 28 28 29 30 30 28 26 25 25 25 25 23 21 20 19 19 20 20 19 18 17 16 15 14 13 11
9 9 9 10 12 15 18 21 24 24 24 25 26 28 30 31 33 33 31 29 30 31 32 33 30 25 25 27 27 26 26 25 29 32 31 29 28 28 30 31 29 27 25 24 24 24 24 25 25 23 23 22 21 21 21 22 21 19 17 16 14 13 11
8 8 9 10 12 14 18 22 23 22 21 22 25 27 30 32 33 33 30 28 29 29 31 33 32 28 29 30 29 29 29 27 28 30 29 27 28 30 30 27 24 23 23 23 24 24 25 25 24 24 24 24 23 23 23 23 22 20 18 16 14 13 11
6 6 8 11 13 14 17 19 19 18 19 21 24 28 33 35 36 33 29 27 28 29 30 31 30 28 30 31 31 31 30 27 26 28 29 29 30 29 25 23 24 26 26 25 25 26 26 24 23 22 23 24 26 27 27 24 21 20 19 16 14 12 11
6 6 7 10 13 14 15 16 17 16 17 19 20 22 22 22 24 25 23 24 28 31 31 33 32 31 32 33 33 31 28 26 26 28 29 29 29 27 24 22 23 25 24 24 23 24 24 24 24 25 26 25 25 28 29 26 22 20 18 16 14 12 11
5 7 9 9 10 11 11 13 15 16 16 15 14 14 12 10 12 15 12 11 19 28 33 36 34 32 33 33 30 28 26 26 28 28 28 28 27 24 21 19 19 20 20 20 21 23 24 24 24 26 27 25 22 20 19 18 18 19 18 16 14 12 11
6 6 8 10 11 12 14 15 16 17 17 18 20 23 23 21 19 17 13 10 18 28 34 36 34 32 32 30 28 27 26 26 26 25 25 25 24 21 18 17 17 17 16 18 22 24 26 26 25 25 24 22 18 15 11 10 13 16 17 16 14 12 11
6 7 8 10 11 13 16 15 14 15 14 15 19 23 27 29 25 21 18 19 30 33 31 30 31 31 29 27 26 25 24 22 22 22 23 22 21 19 18 17 17 15 15 19 23 24 25 25 23 22 21 19 17 16 15 16 16 18 18 17 14 12 12
6 7 8 9 10 14 17 16 15 16 15 15 18 20 24 28 25 20 19 24 34 30 25 26 27 26 24 24 24 22 20 19 19 19 19 19 18 17 17 17 16 15 17 20 22 22 24 23 21 21 20 19 18 17 17 18 18 20 20 17 14 13 12
6 7 8 11 12 14 18 19 18 19 18 16 18 19 22 25 24 21 19 23 28 23 21 21 22 22 22 21 19 18 17 17 16 16 16 16 16 16 17 17 17 18 18 20 21 22 22 22 22 21 20 18 18 18 17 16 16 19 19 17 14 13 13
6 7 9 11 12 14 18 20 19 20 19 17 17 20 22 22 20 19 13 11 14 17 17 12 13 17 17 16 15 16 16 16 15 14 14 14 14 15 15 16 17 17 18 20 21 21 22 22 22 21 20 19 18 18 17 14 14 18 19 17 15 15 14
4 5 7 9 12 15 18 18 17 17 17 17 17 20 23 22 21 22 17 7 7 14 16 11 14 15 15 16 17 16 16 16 15 15 14 13 14 14 14 14 14 14 16 19 20 20 21 21 20 19 19 19 18 17 16 14 15 18 19 18 17 16 14
4 3 4 7 10 13 15 15 15 16 17 17 19 23 26 25 23 23 22 12 9 11 15 17 17 14 14 16 17 17 16 15 14 15 16 14 13 13 12 11 12 12 14 16 17 18 20 20 19 18 17 16 16 16 15 14 16 19 20 19 18 17 14
5 4 5 6 8 11 13 14 15 17 17 17 20 23 26 26 23 21 20 16 15 15 15 15 13 12 15 16 16 15 14 13 14 15 15 13 12 11 10 10 10 11 12 13 14 16 18 18 17 15 14 13 13 14 14 15 18 19 18 17 16 15 12
6 6 6 8 9 11 14 15 16 19 19 19 20 22 22 22 22 20 17 13 8 5 6 10 13 14 16 15 14 13 13 12 12 12 11 11 11 11 10 9 9 10 11 12 13 14 14 14 13 11 11 12 12 13 14 16 17 17 16 14 13 13 11
8 9 10 11 12 13 15 16 19 21 22 22 22 21 19 18 17 14 9 4 4 6 0 10 14 14 13 12 11 10 9 9 10 10 10 10 11 10 11 10 10 10 12 12 12 12 11 10 8 6 6 8 10 11 13 14 15 14 13 13 12 11 8
10 13 15 15 16 16 17 18 20 21 23 23 22 21 20 16 11 6 3 2 3 2 5 12 13 11 10 8 7 7 7 8 9 10 11 12 12 12 13 12 11 10 10 9 9 8 7 5 4 2 3 4 5 7 9 11 11 10 10 11 10 8 7

ECMWFFLT1_925_spd_030.txt.gz
Wind_Speed
13 14 15 13 14 15 14 16 20 23 25 27 29 30 31 32 33 33 34 35 36 35 35 34 34 34 34 34 34 33 32 30 29 28 28 27 27 26 24 22 21 20 19 18 17 16 15 13 12 11 10 10 10 9 7 7 6 6 6 5 5 4 4
12 13 14 13 14 15 15 18 22 24 25 28 29 30 31 32 33 34 35 36 37 36 36 35 35 35 35 35 34 33 32 31 29 29 28 28 27 26 24 23 21 20 19 18 17 16 14 13 13 12 12 11 10 8 7 6 5 5 6 6 6 6 6
12 13 14 14 14 15 15 16 21 25 27 28 29 30 33 35 36 38 38 37 37 36 35 36 37 37 36 36 35 34 33 31 30 30 29 28 28 26 24 22 20 19 18 18 17 16 14 13 13 13 12 11 9 8 8 7 6 6 7 7 7 8 9
13 15 15 15 15 15 14 15 20 25 28 31 33 35 37 39 39 38 37 37 37 36 37 38 38 38 37 37 36 35 34 33 32 31 30 29 27 25 24 22 19 19 19 19 18 16 14 14 14 14 13 11 10 9 9 9 9 9 9 9 10 10 11
14 15 14 14 14 13 13 14 19 25 28 30 34 35 37 38 36 34 35 36 37 38 39 39 37 37 37 37 37 37 36 35 34 33 31 29 27 25 23 21 19 19 20 19 18 16 15 15 15 15 14 13 12 11 11 10 10 10 11 11 12 12 12
14 14 13 13 13 13 14 15 21 27 30 32 35 37 36 35 34 35 36 36 36 37 36 35 35 35 36 36 37 36 36 35 34 33 31 29 27 25 23 21 20 20 20 19 18 17 17 17 17 17 16 15 14 13 12 12 11 11 12 12 12 13 13
12 13 13 13 13 14 15 16 21 27 30 32 33 33 31 31 33 35 35 35 36 35 34 35 35 35 36 37 36 36 35 34 33 32 31 29 27 25 22 20 20 20 20 19 19 18 18 19 19 18 18 16 16 15 14 14 13 13 13 12 13 13 14
14 14 14 15 14 15 15 14 18 24 27 28 27 27 29 31 33 34 34 36 36 36 36 36 36 37 37 37 37 38 38 36 34 33 31 29 27 24 22 21 20 20 20 20 20 19 19 20 20 20 19 18 17 16 15 15 15 15 15 15 15 15 15
13 13 14 15 14 15 13 13 18 22 24 25 26 29 32 33 34 35 37 38 36 36 37 37 36 36 36 36 38 39 39 37 36 35 33 30 28 25 23 22 20 20 21 21 20 20 20 20 21 21 21 20 19 18 18 18 17 17 17 17 18 17 17
11 11 12 13 12 11 10 11 14 16 18 22 25 28 31 32 33 34 35 35 35 36 38 36 34 34 36 38 38 38 39 38 37 37 35 33 30 27 25 23 21 21 21 21 21 22 21 21 22 23 22 21 21 20 20 19 19 19 19 20 20 20 19
9 11 10 10 10 9 9 11 12 13 16 22 26 28 30 31 32 32 33 34 35 36 36 34 34 36 37 38 38 38 39 39 38 38 37 34 31 29 26 24 22 22 22 23 23 23 22 22 23 24 24 23 22 22 21 21 20 21 21 21 21 21 20
10 10 10 10 10 9 10 11 11 13 16 21 25 27 28 29 30 31 32 34 35 34 33 33 34 35 37 39 39 38 39 39 39 38 37 34 31 29 27 25 23 23 23 24 24 23 23 23 24 26 26 24 23 23 23 22 21 21 21 21 20 19 19
8 7 8 9 8 8 9 10 12 13 16 20 23 25 27 28 30 31 31 32 33 33 31 32 34 36 39 39 38 39 41 38 32 30 31 32 30 28 27 26 25 24 24 24 24 24 24 24 26 27 26 24 23 23 22 21 20 20 19 18 17 16 17
6 6 7 7 8 9 10 11 11 11 13 18 21 23 25 27 28 30 30 31 31 30 30 32 34 36 37 38 39 38 32 23 19 20 24 28 29 28 28 28 26 25 25 24 25 25 26 27 27 26 24 23 22 21 20 19 19 18 17 15 13 14 16
9 9 9 9 10 10 10 10 10 10 12 15 19 21 23 25 26 27 27 27 27 28 31 32 33 36 36 35 30 20 17 21 20 23 26 28 28 28 29 30 28 26 26 25 26 26 27 29 27 24 23 22 22 20 19 18 18 18 16 13 13 13 14
12 11 11 11 10 10 10 10 11 11 10 12 17 20 22 23 24 26 26 27 28 29 31 32 34 33 26 16 12 15 20 24 26 29 32 31 30 30 32 31 29 28 27 28 29 28 28 28 26 24 23 23 22 21 21 20 20 19 17 15 14 13 14
13 12 11 10 10 9 10 9 9 9 8 11 17 20 22 23 24 25 26 27 28 30 32 32 29 22 17 17 16 19 25 29 30 33 35 32 30 32 33 33 32 30 29 31 32 30 27 28 27 25 24 24 23 24 23 22 22 21 19 16 15 15 16
12 10 9 9 9 9 9 9 9 10 10 14 18 20 23 24 24 24 27 29 30 30 30 27 22 21 23 25 27 29 30 32 35 35 31 30 32 35 34 34 34 33 33 34 34 31 28 27 28 27 26 25 26 26 24 23 22 21 20 18 17 18 18
9 9 10 10 10 10 11 10 10 11 12 14 18 22 25 25 25 27 30 30 28 26 24 22 23 26 28 28 28 31 33 33 33 31 30 31 32 33 34 35 35 35 36 37 35 32 29 27 28 28 27 27 28 28 26 24 23 22 20 20 20 20 20
9 10 10 9 10 10 10 9 8 10 13 15 18 21 22 23 26 28 27 24 23 23 23 23 25 27 28 28 30 33 34 33 33 35 37 33 30 32 35 35 34 35 36 35 33 31 30 29 29 29 28 28 30 30 28 26 24 22 21 21 21 21 21
9 9 9 9 10 9 8 7 7 9 12 15 17 17 18 22 25 24 21 20 20 21 22 25 27 28 29 31 34 36 37 38 40 42 40 34 32 34 34 33 33 34 33 32 31 31 31 30 29 29 29 30 31 31 30 28 26 23 21 20 21 21 21
10 10 10 9 9 9 8 9 11 12 13 14 16 18 20 22 24 22 19 19 20 21 24 27 29 30 32 35 38 39 39 40 43 44 41 34 31 32 32 32 33 33 31 31 31 31 31 30 29 30 31 31 32 32 32 30 27 24 22 21 20 21 21
9 9 9 8 7 9 10 12 14 14 14 15 16 19 21 22 22 21 19 19 21 24 28 30 30 32 35 39 41 41 40 41 43 42 36 30 28 31 33 34 33 32 30 30 30 31 31 30 30 30 31 31 32 33 33 31 28 25 23 22 22 22 22
4 4 4 5 5 6 8 10 12 12 13 14 15 17 19 20 21 20 19 21 24 27 30 31 32 36 39 41 40 39 38 39 38 35 30 28 30 33 35 34 32 30 29 29 30 31 30 30 29 29 30 30 30 31 32 31 28 25 24 23 23 23 23
6 6 8 9 9 8 8 10 11 11 12 13 13 15 17 19 20 20 21 22 25 28 29 31 35 39 39 36 34 34 35 35 35 35 35 35 36 35 35 34 31 28 28 29 30 30 30 29 28 28 30 30 29 29 30 30 29 26 24 25 24 24 24
7 7 8 10 12 14 13 11 11 11 11 12 12 13 15 18 20 20 21 22 25 26 29 32 36 36 33 29 30 33 34 36 39 40 39 38 36 34 34 33 30 27 28 29 30 29 28 26 25 27 28 28 28 28 27 27 27 24 24 24 24 24 24
9 9 10 11 13 15 13 11 9 9 9 9 10 12 14 17 18 18 19 21 23 26 28 30 31 30 27 27 30 32 34 37 41 40 38 35 32 33 36 35 30 28 29 29 27 26 24 24 24 25 26 26 26 25 24 23 23 22 23 23 23 24 25
9 11 12 13 14 14 14 12 9 8 7 7 9 10 12 15 16 17 18 20 22 23 24 24 26 28 28 28 29 30 32 34 35 34 32 31 30 33 36 34 29 28 28 26 24 22 22 22 22 23 24 24 23 23 22 21 21 21 22 22 21 22 22
8 8 9 12 13 12 13 12 9 7 7 7 8 9 11 14 15 15 16 17 17 18 19 21 24 27 28 27 27 28 30 30 30 29 28 30 32 34 35 32 29 28 26 24 22 21 21 21 20 21 22 22 21 20 19 19 19 19 19 20 18 17 17
8 7 8 11 11 10 11 12 9 6 5 6 7 9 12 14 13 12 13 13 13 15 17 20 24 25 25 25 25 26 27 27 27 28 29 30 32 32 32 31 29 27 25 22 20 19 19 19 17 17 17 18 18 19 18 17 16 16 15 15 15 15 15
8 8 9 11 10 8 8 9 8 6 5 5 7 9 11 12 11 11 12 12 13 15 19 21 23 24 24 23 23 24 25 24 25 26 28 28 27 27 29 30 28 25 23 20 18 18 17 16 14 13 13 14 16 17 17 16 15 14 13 13 14 15 16
8 9 10 10 9 8 7 7 8 7 6 6 7 9 9 10 10 10 11 12 13 16 19 22 23 23 24 23 23 23 22 22 22 22 23 22 22 23 25 27 26 24 21 18 16 15 14 12 11 11 11 13 15 17 17 16 15 14 13 12 13 16 17
6 7 8 7 6 4 4 5 6 7 7 7 7 7 7 7 7 9 11 13 14 17 19 21 22 23 23 23 21 20 20 21 21 21 20 18 18 20 22 23 23 21 18 14 12 11 11 11 11 10 11 13 15 15 16 16 15 14 13 12 12 14 15
4 5 7 6 4 5 6 6 6 6 6 5 6 6 6 6 7 9 11 13 14 17 20 21 22 22 21 20 19 18 18 19 19 19 17 16 15 17 17 18 18 16 12 10 9 9 9 9 9 9 10 11 12 13 15 16 15 13 11 10 10 11 11
4 5 7 8 7 7 7 5 3 4 3 3 5 7 7 8 9 10 11 13 15 18 20 19 19 18 17 16 15 14 14 14 13 12 11 11 11 12 12 11 11 10 8 7 8 8 7 7 8 8 8 9 10 11 13 15 14 12 11 11 11 10 8
3 4 6 6 5 4 3 2 2 4 5 5 6 8 8 9 11 11 11 12 15 16 16 15 12 11 10 11 10 10 10 10 9 9 9 9 9 10 9 8 7 7 7 7 7 7 7 7 7 8 9 9 9 10 11 13 13 12 12 12 11 9 7
3 3 5 5 6 4 2 2 5 6 6 6 7 8 9 10 12 13 12 12 12 12 13 13 12 11 9 8 7 7 9 9 8 8 8 8 8 10 11 9 7 6 6 6 6 6 6 7 7 8 8 8 8 9 10 10 11 10 10 9 8 6 5
9 9 9 8 6 3 1 4 6 7 8 9 10 10 11 11 12 13 13 13 14 15 16 18 18 17 14 11 6 4 6 7 7 8 9 10 12 12 11 9 7 6 5 5 6 6 7 6 6 5 5 5 6 7 8 8 8 8 7 6 5 4 4

ECMWFFLT1_925_spd_033.txt.gz
Wind_Speed
15 16 16 14 14 15 14 15 18 21 22 24 25 27 27 27 26 27 30 35 37 36 37 38 37 36 36 35 35 35 35 34 34 32 31 30 27 26 24 24 25 24 23 22 19 18 17 15 14 11 10 10 10 10 9 9 9 9 9 9 8 7 6
15 15 15 14 15 15 15 17 20 21 22 24 25 26 26 26 28 30 31 35 39 39 39 39 38 38 37 36 36 36 36 35 35 33 32 31 28 26 25 25 25 25 23 21 19 17 16 14 13 12 11 12 11 11 11 10 10 9 9 9 8 8 7
15 15 15 16 16 16 16 17 20 23 23 24 25 25 26 29 35 38 35 35 37 37 37 38 40 39 37 37 37 37 37 36 35 34 33 31 29 27 25 25 25 24 22 21 18 17 16 15 14 13 13 13 12 12 11 11 10 9 9 9 8 8 8
15 16 17 17 17 16 15 17 20 24 26 26 28 27 30 36 40 39 36 36 35 34 36 39 40 40 39 39 38 38 38 37 36 34 32 31 29 26 25 25 24 24 22 20 18 18 17 15 15 15 14 15 14 13 11 11 11 10 10 9 9 9 9
15 16 16 16 16 15 15 16 20 24 26 27 28 28 31 35 35 32 32 34 34 36 40 41 39 39 39 39 39 39 39 38 36 34 32 31 28 26 25 25 25 24 22 20 19 18 18 17 16 16 16 16 15 13 12 12 11 11 10 10 10 10 10
15 15 15 15 16 16 17 18 22 26 28 28 29 29 30 30 29 29 31 32 33 34 36 37 37 39 40 39 40 39 38 38 36 35 33 31 28 25 25 25 25 25 23 21 20 19 19 18 17 17 17 16 16 14 13 12 12 11 11 11 11 10 10
14 14 15 16 15 17 18 19 23 28 29 28 28 28 29 27 27 29 29 30 32 31 30 32 36 39 40 39 40 39 38 37 36 35 33 30 27 25 25 25 25 25 23 21 21 20 20 19 18 18 17 17 16 15 14 13 13 12 12 12 12 12 12
12 12 15 16 15 17 18 17 21 25 26 25 24 24 26 26 26 28 28 28 30 29 30 31 34 39 40 39 40 39 38 37 36 34 31 27 25 24 24 25 25 25 23 21 21 20 19 19 19 18 18 18 17 16 15 15 14 14 14 14 14 14 14
11 11 14 15 16 16 15 15 18 20 22 23 23 24 27 27 27 29 29 29 28 29 31 31 32 38 41 39 38 37 36 34 31 28 26 24 24 23 24 25 25 24 22 21 21 20 20 20 20 19 19 19 19 17 17 16 16 15 15 16 16 16 17
10 11 12 13 13 12 11 12 14 15 16 19 21 23 26 26 26 27 27 27 27 28 31 30 27 32 38 38 34 31 26 20 18 20 23 25 24 24 26 27 26 24 22 22 21 20 21 21 21 20 20 21 21 20 19 19 18 17 17 18 19 19 20
9 10 11 12 11 11 11 12 12 11 13 17 20 22 23 23 24 25 25 26 27 27 28 28 25 27 34 32 24 19 16 15 18 23 27 29 27 26 28 28 27 24 22 22 22 21 22 22 22 22 22 23 23 22 22 21 20 19 19 20 21 21 22
8 9 11 12 12 11 11 11 11 11 13 16 19 20 21 22 23 24 24 25 27 26 25 26 24 24 26 21 19 22 22 25 32 34 33 33 30 28 29 28 26 24 23 23 23 22 22 23 24 25 24 24 24 24 24 22 22 21 21 22 22 23 23
7 8 9 10 10 10 10 10 12 13 13 16 18 19 20 22 23 24 24 25 25 24 22 22 21 19 19 20 24 30 35 39 41 40 38 36 30 28 29 28 26 26 25 25 25 24 24 25 26 26 26 25 25 25 25 23 23 23 22 23 24 24 23
8 9 9 10 11 12 12 12 12 12 13 15 17 19 19 21 22 22 22 22 23 23 21 19 19 20 21 25 31 37 39 40 42 43 41 37 32 29 29 29 29 28 27 27 27 26 26 27 27 27 27 26 26 26 25 24 24 24 24 24 23 22 21
11 11 12 12 13 13 13 13 12 13 14 15 17 19 19 19 20 19 21 21 22 22 20 19 23 24 25 29 33 35 36 39 42 41 37 36 34 31 31 31 32 31 30 29 28 29 29 28 27 27 27 27 27 26 25 25 25 24 23 21 20 20 20
12 13 14 15 14 13 13 13 13 13 13 14 17 19 19 19 20 21 22 21 21 22 20 22 28 27 26 30 34 35 37 38 35 29 29 34 36 35 35 37 36 34 33 32 31 31 31 29 28 28 28 28 27 26 26 26 25 24 21 20 20 20 20
12 13 14 13 13 13 12 12 12 13 13 14 17 20 20 20 19 20 21 21 21 21 21 25 28 27 28 33 36 36 36 33 29 27 32 40 40 39 41 41 38 36 34 33 32 33 32 30 29 29 29 28 27 27 27 26 25 23 21 20 20 20 20
13 14 13 12 11 11 12 13 13 14 15 16 18 20 20 19 18 19 20 20 19 20 20 23 24 26 30 33 32 33 34 34 34 36 42 45 42 42 44 41 37 35 34 33 33 33 32 31 30 30 28 27 27 28 28 27 25 22 22 22 21 21 21
12 13 12 12 12 13 14 14 14 15 15 16 19 21 21 20 19 18 18 17 18 19 20 21 23 28 30 28 26 30 33 36 39 41 44 44 42 42 42 38 35 35 35 34 34 34 33 31 31 30 29 27 27 27 29 28 25 23 22 23 22 21 22
10 10 11 11 12 13 12 10 9 11 12 14 16 16 16 17 15 14 15 17 18 20 21 22 25 29 30 26 26 30 32 35 40 42 44 45 41 38 38 36 35 35 35 35 33 33 32 31 31 30 29 28 26 26 28 28 26 24 23 24 23 22 23
7 9 11 12 12 11 10 9 8 9 9 10 12 12 13 14 14 14 15 18 19 20 23 26 28 30 30 27 27 30 31 34 40 43 44 41 36 33 34 34 33 33 33 34 34 33 32 30 29 28 28 27 25 24 27 29 27 25 24 24 25 23 24
8 9 9 9 11 11 10 10 10 10 11 12 13 13 14 15 16 16 16 18 19 20 24 28 28 27 28 27 29 31 31 34 41 44 40 36 33 32 33 32 31 31 31 32 32 31 30 29 28 27 27 27 26 25 28 29 28 25 25 26 26 25 25
9 8 5 5 8 10 11 12 13 15 16 16 15 15 15 16 17 17 17 18 19 20 23 25 25 25 27 28 29 31 31 36 42 43 38 34 32 32 31 31 31 30 29 29 28 27 28 27 26 26 27 27 27 28 30 30 27 25 25 26 26 25 25
8 9 9 9 10 12 13 14 15 18 20 18 15 14 14 15 17 17 17 17 19 20 21 22 23 25 28 28 29 30 31 36 42 43 39 34 32 30 28 28 31 31 29 28 27 26 26 24 23 25 28 28 29 30 30 30 28 25 24 24 24 24 23
9 10 10 11 12 13 14 15 15 16 17 16 14 14 15 16 17 17 16 17 18 19 20 21 23 27 28 26 27 30 30 34 42 44 37 30 28 29 27 26 29 31 30 29 27 24 22 21 22 26 28 29 30 29 29 29 28 26 25 24 24 23 22
10 10 10 11 11 13 16 17 16 13 12 13 13 15 16 17 17 16 16 16 17 18 20 22 25 27 27 24 25 28 30 36 44 44 35 27 25 25 25 27 29 29 27 26 22 20 20 21 24 26 26 26 27 26 25 26 27 26 25 23 23 22 19
11 11 12 13 13 13 14 14 14 13 13 13 14 16 17 17 16 14 14 15 16 17 19 21 22 24 23 22 24 27 29 36 44 44 37 29 23 20 22 27 30 28 25 23 21 21 22 22 22 22 21 21 20 20 22 23 24 24 23 21 20 19 17
11 12 13 14 13 14 15 14 14 15 13 13 15 16 17 17 13 11 13 14 13 15 17 19 20 20 20 21 23 25 27 32 39 40 33 25 21 20 22 27 29 27 24 22 20 20 20 20 21 21 19 18 17 18 20 22 21 19 19 17 16 16 16
11 11 11 12 11 13 16 16 14 13 12 12 14 15 15 15 12 10 11 11 11 13 15 18 19 18 18 19 21 23 26 27 29 31 26 21 21 22 23 26 29 26 23 21 19 17 18 19 20 20 18 16 14 13 14 16 16 15 14 13 13 14 15
11 11 11 12 12 13 15 14 13 13 11 11 12 13 13 12 11 11 10 9 12 14 14 15 17 17 17 18 20 22 25 24 24 24 22 21 22 23 24 26 26 24 24 23 21 19 19 19 18 16 14 12 12 10 9 10 11 10 9 9 9 10 11
10 11 12 13 14 16 17 15 14 13 12 10 9 9 9 9 9 10 9 9 11 12 11 13 15 16 17 18 19 20 22 23 23 21 21 22 23 23 23 24 23 23 24 23 21 20 18 15 14 12 11 11 11 9 7 7 6 5 5 5 6 7 7
10 11 12 12 13 15 16 15 14 13 12 10 8 7 7 6 6 7 7 8 8 9 10 13 14 15 16 17 18 18 19 21 21 20 20 22 21 19 19 21 20 21 21 21 20 18 15 12 9 8 9 10 10 8 6 5 3 3 3 3 3 4 5
10 10 11 11 9 9 11 12 11 10 11 9 7 6 6 6 6 6 6 6 7 8 11 13 14 14 15 15 16 17 18 18 18 18 18 17 16 16 18 19 18 17 17 17 15 12 9 8 8 8 10 11 9 7 6 4 3 2 2 2 3 3 4
9 9 10 11 9 8 9 9 8 8 8 7 6 5 5 5 6 6 7 8 8 10 12 13 13 13 13 14 14 15 15 15 15 16 15 13 13 15 16 15 15 15 15 14 12 10 10 11 11 11 11 10 7 5 3 2 2 2 1 2 3 3 4
10 10 11 11 11 10 9 8 7 7 6 5 4 5 5 5 6 7 9 10 11 12 13 13 12 12 12 13 12 12 13 13 13 13 12 12 14 16 15 14 14 13 12 13 13 14 15 14 12 10 9 6 4 3 2 2 2 1 2 4 4 4 5
9 9 10 9 9 8 8 6 5 5 4 4 4 6 7 7 8 8 8 9 11 13 13 13 12 11 10 11 10 10 11 11 12 13 14 16 18 19 17 14 12 12 12 14 15 15 14 12 9 8 6 4 3 2 2 2 2 3 4 5 5 5 5
7 7 7 7 6 5 4 3 3 4 5 5 5 7 7 8 9 9 9 10 11 12 12 12 11 9 9 9 9 9 8 7 9 13 17 18 19 19 18 15 12 11 12 13 12 11 10 9 7 5 4 3 3 2 2 1 2 4 4 5 4 3 2
8 7 6 5 4 3 3 4 4 5 5 5 6 7 7 8 9 10 9 9 11 11 11 11 11 12 12 11 10 9 9 9 9 10 13 14 14 15 17 18 15 12 11 10 8 7 7 7 6 5 4 3 3 2 2 1 2 2 2 2 1 1 1

ECMWFFLT1_925_spd_036.txt.gz
Wind_Speed
17 19 19 17 17 17 17 18 20 22 24 25 25 27 27 26 26 24 23 24 25 25 25 25 25 25 25 26 25 24 23 22 21 20 20 20 19 17 15 14 14 15 14 13 12 13 13 12 11 11 10 10 10 10 11 10 10 9 8 8 7 6 6
16 17 18 18 17 18 19 19 22 24 24 25 25 26 27 26 26 26 24 24 26 26 26 26 25 26 26 26 25 25 24 23 21 20 19 19 18 17 16 15 14 14 14 13 12 12 12 11 11 11 10 10 10 10 11 10 10 9 8 8 8 7 6
15 16 17 18 17 18 19 20 22 25 26 26 26 26 27 27 28 29 27 25 26 26 25 26 27 27 26 25 25 25 24 23 21 20 19 18 17 17 16 15 15 14 14 13 12 11 11 12 12 11 10 10 10 10 10 10 10 9 8 8 8 8 7
15 16 17 18 19 19 19 19 21 25 27 27 28 28 29 30 29 29 28 27 27 27 27 27 27 27 26 25 25 24 24 23 21 20 18 17 16 16 16 15 14 13 13 13 12 11 11 11 11 11 11 10 10 10 10 10 10 9 9 8 8 8 8
16 16 16 17 18 17 17 18 21 25 27 28 28 28 29 30 29 27 27 27 27 29 30 29 27 25 25 24 24 23 23 23 21 19 18 16 16 17 17 16 14 13 13 12 12 12 12 11 11 11 11 11 11 11 10 10 10 10 9 9 8 8 8
14 15 15 16 17 17 18 19 23 28 29 28 29 28 28 29 28 28 28 27 28 28 29 28 26 25 25 24 23 21 21 21 20 19 18 17 18 18 17 16 15 14 13 13 13 13 12 12 12 12 12 12 12 12 11 11 11 10 9 9 9 8 8
13 14 16 16 16 17 18 19 22 27 29 28 28 27 28 28 28 29 29 28 29 28 27 28 27 26 25 24 23 21 20 21 21 21 19 18 19 18 16 17 18 17 15 14 14 14 14 14 14 14 13 13 12 12 12 11 11 10 10 10 9 9 8
13 14 15 16 15 15 16 16 18 22 25 25 26 27 27 27 27 28 29 28 28 28 28 28 27 26 24 23 22 22 22 23 23 21 20 20 21 20 19 21 22 20 18 17 17 16 16 15 15 15 15 14 13 13 12 12 12 11 10 11 10 10 10
12 13 13 14 15 14 14 14 15 19 22 24 25 25 26 26 26 27 28 28 27 28 29 28 27 25 23 23 24 25 26 26 24 23 21 23 25 24 22 23 23 23 23 21 19 19 19 18 17 16 16 15 14 14 14 13 13 12 12 12 12 11 11
9 10 11 12 13 13 12 13 14 16 18 21 23 24 25 26 25 26 26 27 27 28 29 28 26 24 23 25 27 29 30 26 24 25 25 25 26 24 22 20 20 22 24 22 20 20 20 19 18 17 17 16 15 15 15 15 14 14 13 13 13 13 13
7 9 9 11 12 12 13 13 14 14 14 18 21 23 23 25 25 25 25 26 26 26 27 27 25 24 25 27 29 31 33 29 26 26 25 24 25 25 23 19 18 19 23 24 22 21 21 21 20 20 20 19 18 17 17 16 15 15 15 14 14 14 15
7 8 9 11 12 13 13 13 13 14 14 17 21 22 22 24 25 24 24 26 26 25 24 24 25 26 27 28 28 31 32 29 26 26 26 27 28 27 26 26 26 26 27 29 28 26 25 24 23 23 24 23 21 18 17 17 17 16 16 16 15 15 15
7 8 9 11 12 12 13 13 14 16 15 18 21 22 22 23 24 24 24 25 25 23 22 23 26 27 28 28 27 27 27 26 26 27 30 33 34 31 30 32 32 31 32 33 31 29 27 25 24 25 26 25 24 21 18 17 18 18 17 17 16 16 16
8 9 10 11 12 13 15 15 15 16 16 18 21 22 22 22 23 23 23 22 22 21 21 22 25 26 27 26 24 23 23 24 29 35 37 36 37 36 36 37 36 34 35 33 29 27 26 24 24 24 24 24 24 23 21 18 18 18 18 18 18 17 17
9 10 11 13 14 15 15 15 15 16 16 17 20 22 21 21 22 22 21 20 21 21 21 21 23 24 24 23 21 21 22 24 31 39 40 36 38 40 40 40 40 38 36 34 31 28 25 23 22 22 22 24 25 25 24 20 19 19 20 19 18 17 16
10 11 13 14 15 15 15 15 15 16 16 17 19 21 21 21 21 22 21 21 21 22 22 21 22 23 23 22 21 22 25 26 28 36 39 38 39 42 42 41 40 37 37 36 32 28 26 24 21 20 21 24 26 26 25 22 20 21 22 21 20 17 15
11 12 13 14 14 14 14 15 15 16 17 17 19 22 22 21 21 21 21 21 22 23 23 22 23 24 22 21 22 25 28 27 26 33 40 41 39 41 42 40 36 34 36 36 31 28 27 25 22 20 20 21 22 24 24 23 21 22 24 25 24 21 17
12 13 13 13 14 14 15 17 17 18 18 18 20 22 22 21 21 21 21 22 21 22 23 22 23 23 21 23 25 27 29 28 26 29 37 41 40 38 36 33 29 29 31 32 31 29 26 24 23 21 20 19 20 21 21 22 21 22 24 24 23 22 19
12 12 12 12 13 15 16 17 16 16 17 18 20 22 22 21 21 21 21 21 20 21 22 22 22 22 22 25 27 28 28 27 26 27 31 38 39 32 27 26 25 26 26 27 30 30 28 28 26 22 21 20 20 20 18 17 18 20 22 22 22 20 19
11 10 10 11 12 14 14 13 13 15 17 19 20 20 20 20 19 18 19 20 19 20 21 21 21 22 24 26 27 27 27 26 27 28 29 33 34 28 25 25 25 25 25 25 26 27 27 29 25 21 22 22 20 18 17 16 17 19 20 20 22 22 21
9 10 10 11 12 12 13 13 13 14 17 19 19 19 19 18 17 17 18 19 19 20 20 20 20 21 24 26 26 26 25 25 28 28 27 29 29 25 24 25 24 23 23 21 21 21 22 23 20 18 20 20 18 16 15 16 18 20 19 19 21 22 22
9 11 11 11 12 12 14 15 16 17 18 19 19 19 19 19 19 19 19 19 19 19 19 19 20 21 22 24 24 24 24 25 27 27 26 28 29 25 24 25 25 22 20 17 17 18 18 18 18 18 18 17 15 15 14 15 16 18 18 18 20 21 21
10 11 11 12 13 14 16 17 18 19 20 20 20 20 19 19 20 19 19 19 18 19 19 18 19 20 21 22 22 22 24 25 26 26 26 27 28 27 26 27 25 21 20 19 18 18 18 17 17 18 17 15 14 14 14 14 16 17 18 18 19 19 20
10 11 12 12 13 15 18 20 20 20 20 20 20 19 20 21 21 20 19 18 18 18 18 17 18 18 19 21 21 21 23 25 26 26 25 25 27 27 27 27 25 21 19 20 19 18 17 16 16 16 14 13 12 13 14 15 14 14 16 17 17 17 18
9 10 11 13 15 17 18 20 21 20 19 19 19 20 21 22 22 20 18 17 16 16 15 16 17 17 18 20 21 20 22 24 25 25 24 24 25 25 24 24 22 19 17 18 19 17 15 17 19 16 12 10 10 12 14 14 13 13 15 15 15 15 16
9 10 11 13 16 19 19 20 21 21 20 19 19 20 22 22 20 18 17 16 15 14 14 14 15 16 17 18 19 19 21 23 24 24 22 22 22 22 22 20 18 17 16 17 19 18 16 17 19 15 10 7 6 9 12 13 12 12 13 13 13 13 13
11 11 12 13 16 18 19 19 20 20 19 19 19 20 20 20 19 18 17 16 15 13 12 12 13 14 15 16 17 18 20 21 22 22 21 20 19 19 19 17 16 16 16 16 18 20 19 18 16 11 8 6 6 10 12 11 9 9 10 11 11 10 10
13 13 15 17 17 18 19 19 19 20 19 18 19 19 18 19 19 18 17 15 13 12 11 12 13 13 14 15 15 17 19 19 19 19 18 17 18 17 16 14 14 16 17 16 18 20 20 17 13 8 6 4 6 8 9 10 9 8 9 10 9 8 8
16 16 17 18 18 18 18 18 17 18 17 17 16 16 17 18 18 17 16 15 13 12 13 13 13 14 14 15 15 16 18 19 19 18 16 17 18 18 16 14 14 16 18 17 18 19 18 13 11 9 6 4 5 6 7 9 8 6 6 8 9 9 10
16 16 17 17 18 19 19 17 17 17 16 14 14 13 13 15 16 16 15 15 14 14 14 14 14 14 14 15 15 16 17 19 20 19 17 17 18 16 16 16 15 17 20 19 17 17 14 11 10 9 7 4 5 7 8 7 5 4 5 8 9 9 10
16 17 17 18 18 19 18 18 19 18 17 14 14 14 12 12 14 15 14 13 13 13 13 14 14 14 13 13 14 15 15 16 18 18 17 18 19 16 15 15 15 17 20 19 16 13 11 9 8 6 4 5 7 8 8 6 4 4 7 9 8 9 10
16 16 17 17 17 18 18 18 17 17 17 15 13 14 12 11 13 14 13 11 11 10 10 11 12 11 11 10 11 12 13 14 15 16 17 18 18 17 15 14 15 16 18 18 15 13 10 9 7 5 6 7 8 7 6 5 5 7 8 6 4 6 9
15 15 15 15 15 16 17 16 14 15 15 13 12 12 12 11 12 13 12 11 11 10 11 11 11 11 10 9 9 11 12 13 13 14 15 15 14 14 15 15 15 16 17 17 15 12 11 10 9 9 8 7 6 6 6 7 9 10 9 6 4 5 6
14 14 14 15 15 15 16 16 15 14 14 13 11 11 12 12 12 12 12 11 11 12 12 12 12 12 10 9 9 9 10 12 12 12 13 13 12 11 11 13 14 15 14 13 12 12 11 11 11 11 9 8 8 9 10 12 11 9 9 8 6 6 6
12 13 13 14 14 15 16 16 15 15 14 12 11 11 12 12 11 11 11 11 11 12 13 13 12 11 10 9 9 9 9 10 11 11 10 10 12 11 8 6 8 11 11 11 10 11 11 11 10 10 10 10 11 12 11 11 10 10 11 10 9 10 10
12 12 13 14 14 16 16 15 15 15 14 12 11 11 11 11 11 10 10 10 11 12 13 13 11 10 9 9 9 10 11 11 11 11 9 10 12 10 7 6 6 7 10 10 11 11 12 11 11 11 11 10 12 13 10 7 8 11 11 11 10 11 10
12 12 13 14 14 14 14 14 14 14 13 11 10 11 11 11 10 9 9 10 10 11 12 12 9 9 9 8 8 9 11 12 12 11 10 9 10 10 9 9 8 7 7 8 10 11 12 12 12 13 14 11 11 13 11 8 9 10 9 8 8 8 7
14 13 13 13 13 13 13 12 12 11 11 10 10 10 10 10 9 8 9 10 10 11 11 10 9 9 9 8 9 9 8 8 10 10 9 9 9 9 10 10 9 7 6 7 9 11 12 12 12 14 16 14 12 13 13 11 10 9 8 8 8 6 5